| time (UTC) | temp C | wind direction | speed KPH | gust KPH | rain 1hr cm | rain 24hr cm | rain mn cm | humidity % | barometer mb |
| 20260906151531 | 21 | 227 | 3.2 | 9.7 | 0.00 | 0.00 | 0.00 | 81 | 1021.0 |
| 20260906150033 | 21 | 218 | 3.2 | 8.0 | 0.00 | 0.00 | 0.00 | 82 | 1020.9 |
| 20260906144519 | 20 | 106 | 3.2 | 4.8 | 0.00 | 0.00 | 0.00 | 83 | 1020.8 |
| 20260906143025 | 20 | 170 | 1.6 | 9.7 | 0.00 | 0.00 | 0.00 | 84 | 1020.7 |
| 20260906141529 | 19 | 171 | 0.0 | 3.2 | 0.00 | 0.00 | 0.00 | 86 | 1020.6 |
| 20260906140038 | 18 | 186 | 0.0 | 8.0 | 0.00 | 0.00 | 0.00 | 87 | 1020.8 |
| 20260906134515 | 18 | 123 | 3.2 | 9.7 | 0.00 | 0.00 | 0.00 | 87 | 1020.9 |
| 20260906133027 | 18 | 175 | 1.6 | 6.4 | 0.00 | 0.00 | 0.00 | 87 | 1020.7 |
| 20260906131527 | 17 | 133 | 1.6 | 6.4 | 0.00 | 0.00 | 0.00 | 88 | 1020.6 |
| 20260906130029 | 17 | 145 | 1.6 | 9.7 | 0.00 | 0.00 | 0.00 | 88 | 1020.6 |
| 20260906124532 | 17 | 111 | 1.6 | 8.0 | 0.00 | 0.00 | 0.00 | 89 | 1020.5 |
| 20260906123034 | 16 | 110 | 3.2 | 6.4 | 0.00 | 0.00 | 0.00 | 91 | 1020.4 |
| 20260906121525 | 16 | 164 | 0.0 | 3.2 | 0.00 | 0.00 | 0.00 | 93 | 1020.4 |
| 20260906120032 | 16 | 88 | 0.0 | 6.4 | 0.00 | 0.00 | 0.00 | 93 | 1020.3 |
| 20260906114517 | 16 | 46 | 0.0 | 3.2 | 0.00 | 0.00 | 0.00 | 94 | 1020.3 |
| 20260906113020 | 16 | 94 | 0.0 | 3.2 | 0.00 | 0.00 | 0.00 | 94 | 1020.1 |
| 20260906111524 | 16 | 45 | 0.0 | 3.2 | 0.00 | 0.00 | 0.00 | 94 | 1020.1 |
| 20260906110030 | 16 | 116 | 0.0 | 3.2 | 0.00 | 0.00 | 0.00 | 94 | 1019.6 |
| 20260906104534 | 16 | 229 | 1.6 | 3.2 | 0.00 | 0.00 | 0.00 | 94 | 1019.2 |
| 20260906103014 | 16 | 158 | 0.0 | 3.2 | 0.00 | 0.00 | 0.00 | 94 | 1019.1 |
| 20260906101527 | 16 | 59 | 0.0 | 3.2 | 0.00 | 0.00 | 0.00 | 94 | 1019.2 |
| 20260906100031 | 17 | 39 | 1.6 | 3.2 | 0.00 | 0.00 | 0.00 | 94 | 1019.1 |
| 20260906094529 | 17 | 46 | 0.0 | 3.2 | 0.00 | 0.00 | 0.00 | 95 | 1019.2 |
| 20260906093046 | 17 | 49 | 0.0 | 3.2 | 0.00 | 0.00 | 0.00 | 94 | 1019.2 |
| 20260906091521 | 17 | 106 | 0.0 | 3.2 | 0.00 | 0.00 | 0.00 | 94 | 1019.3 |
| 20260906090030 | 17 | 42 | 1.6 | 3.2 | 0.00 | 0.00 | 0.00 | 94 | 1019.3 |
| 20260906084530 | 17 | 45 | 0.0 | 3.2 | 0.00 | 0.00 | 0.00 | 94 | 1019.2 |
| 20260906083031 | 17 | 45 | 1.6 | 3.2 | 0.00 | 0.00 | 0.00 | 93 | 1019.2 |
| 20260906081534 | 17 | 360 | 0.0 | 3.2 | 0.00 | 0.00 | 0.00 | 92 | 1019.2 |
| 20260906080026 | 17 | 360 | 0.0 | 3.2 | 0.00 | 0.00 | 0.00 | 91 | 1019.1 |
| 20260906074530 | 17 | 239 | 0.0 | 3.2 | 0.00 | 0.00 | 0.00 | 91 | 1019.1 |
| 20260906073047 | 17 | 268 | 0.0 | 3.2 | 0.00 | 0.00 | 0.00 | 92 | 1019.2 |
| 20260906071530 | 17 | 270 | 0.0 | 3.2 | 0.00 | 0.00 | 0.00 | 92 | 1019.3 |
| 20260906070035 | 17 | 274 | 1.6 | 6.4 | 0.00 | 0.00 | 0.00 | 92 | 1019.4 |
| 20260906064525 | 17 | 221 | 1.6 | 3.2 | 0.00 | 0.00 | 0.00 | 92 | 1019.3 |
| 20260906063028 | 17 | 261 | 0.0 | 3.2 | 0.00 | 0.00 | 0.00 | 92 | 1019.5 |
| 20260906061533 | 18 | 263 | 1.6 | 4.8 | 0.00 | 0.00 | 0.00 | 93 | 1019.5 |
| 20260906060018 | 18 | 281 | 1.6 | 3.2 | 0.00 | 0.00 | 0.00 | 93 | 1019.5 |
| 20260906054526 | 18 | 225 | 0.0 | 3.2 | 0.00 | 0.00 | 0.00 | 93 | 1019.4 |
| 20260906053004 | 18 | 136 | 0.0 | 3.2 | 0.00 | 0.00 | 0.00 | 93 | 1019.3 |
| 20260906051518 | 18 | 147 | 0.0 | 3.2 | 0.00 | 0.00 | 0.00 | 92 | 1019.3 |
| 20260906050017 | 18 | 117 | 0.0 | 4.8 | 0.00 | 0.00 | 0.00 | 92 | 1019.3 |
| 20260906044523 | 18 | 122 | 0.0 | 3.2 | 0.00 | 0.00 | 0.00 | 91 | 1019.2 |
| 20260906043039 | 19 | 221 | 3.2 | 6.4 | 0.00 | 0.00 | 0.00 | 91 | 1019.0 |
| 20260906041508 | 19 | 160 | 3.2 | 6.4 | 0.00 | 0.00 | 0.00 | 91 | 1018.9 |
| 20260906040014 | 20 | 107 | 1.6 | 9.7 | 0.00 | 0.00 | 0.00 | 91 | 1018.8 |
| 20260906034526 | 20 | 185 | 1.6 | 8.0 | 0.00 | 0.00 | 0.00 | 92 | 1018.5 |
| 20260906033026 | 20 | 230 | 0.0 | 4.8 | 0.00 | 0.00 | 0.00 | 93 | 1018.4 |
| 20260906031526 | 20 | 138 | 1.6 | 4.8 | 0.00 | 0.00 | 0.00 | 93 | 1018.5 |
| 20260906030011 | 20 | 107 | 0.0 | 4.8 | 0.00 | 0.00 | 0.00 | 92 | 1018.2 |
| 20260906024518 | 20 | 65 | 1.6 | 4.8 | 0.00 | 0.00 | 0.00 | 92 | 1018.1 |
| 20260906023024 | 20 | 127 | 0.0 | 6.4 | 0.00 | 0.00 | 0.00 | 92 | 1017.8 |
| 20260906021529 | 20 | 109 | 3.2 | 8.0 | 0.00 | 0.00 | 0.00 | 91 | 1017.6 |
| 20260906020029 | 20 | 163 | 3.2 | 12.9 | 0.00 | 0.00 | 0.00 | 90 | 1017.5 |
| 20260906014518 | 21 | 118 | 1.6 | 12.9 | 0.00 | 0.00 | 0.00 | 90 | 1017.4 |
| 20260906013021 | 21 | 71 | 3.2 | 12.9 | 0.00 | 0.00 | 0.00 | 90 | 1017.0 |
| 20260906011527 | 21 | 91 | 3.2 | 9.7 | 0.00 | 0.00 | 0.00 | 89 | 1016.9 |
| 20260906010031 | 21 | 185 | 3.2 | 11.3 | 0.00 | 0.00 | 0.00 | 89 | 1016.7 |
| 20260906004513 | 21 | 67 | 4.8 | 9.7 | 0.00 | 0.00 | 0.00 | 88 | 1016.9 |
| 20260906003016 | 21 | 30 | 3.2 | 9.7 | 0.00 | 0.00 | 0.00 | 88 | 1017.1 |
| 20260906001523 | 21 | 52 | 3.2 | 9.7 | 0.00 | 0.00 | 0.00 | 87 | 1017.4 |
| 20260906000028 | 22 | 63 | 1.6 | 4.8 | 0.00 | 0.00 | 0.00 | 86 | 1017.4 |
| 20260905234534 | 22 | 44 | 1.6 | 3.2 | 0.00 | 0.00 | 0.00 | 86 | 1017.4 |
| 20260905233014 | 22 | 49 | 1.6 | 4.8 | 0.00 | 0.00 | 0.00 | 85 | 1017.5 |
| 20260905231520 | 22 | 47 | 1.6 | 4.8 | 0.00 | 0.00 | 0.00 | 84 | 1017.4 |
| 20260905230028 | 22 | 41 | 1.6 | 6.4 | 0.00 | 0.00 | 0.00 | 82 | 1017.4 |
| 20260905224535 | 23 | 21 | 3.2 | 9.7 | 0.00 | 0.00 | 0.00 | 79 | 1017.6 |
| 20260905223035 | 24 | 50 | 3.2 | 6.4 | 0.00 | 0.00 | 0.00 | 76 | 1017.6 |
| 20260905221518 | 24 | 68 | 1.6 | 11.3 | 0.00 | 0.00 | 0.00 | 75 | 1017.6 |
| 20260905220022 | 24 | 32 | 4.8 | 14.5 | 0.00 | 0.00 | 0.00 | 76 | 1017.4 |
| 20260905214529 | 24 | 42 | 3.2 | 14.5 | 0.00 | 0.00 | 0.00 | 76 | 1017.4 |
| 20260905213031 | 23 | 26 | 4.8 | 16.1 | 0.00 | 0.00 | 0.00 | 79 | 1017.0 |
| 20260905211529 | 24 | 86 | 4.8 | 12.9 | 0.00 | 0.00 | 0.00 | 79 | 1017.2 |
| 20260905210020 | 24 | 55 | 3.2 | 14.5 | 0.00 | 0.00 | 0.00 | 79 | 1017.3 |
| 20260905204526 | 24 | 155 | 4.8 | 12.9 | 0.00 | 0.00 | 0.00 | 81 | 1017.5 |
| 20260905203032 | 25 | 55 | 4.8 | 14.5 | 0.00 | 0.00 | 0.00 | 78 | 1017.5 |
| 20260905201532 | 24 | 81 | 6.4 | 16.1 | 0.00 | 0.00 | 0.00 | 79 | 1017.6 |
| 20260905200018 | 23 | 71 | 3.2 | 11.3 | 0.00 | 0.00 | 0.00 | 81 | 1017.7 |
| 20260905194526 | 25 | 36 | 4.8 | 16.1 | 0.00 | 0.00 | 0.00 | 79 | 1017.5 |
| 20260905193030 | 24 | 47 | 4.8 | 14.5 | 0.00 | 0.00 | 0.00 | 82 | 1017.4 |
| 20260905191537 | 23 | 45 | 6.4 | 14.5 | 0.00 | 0.00 | 0.00 | 86 | 1017.5 |
| 20260905190045 | 23 | 45 | 8.0 | 12.9 | 0.00 | 0.00 | 0.00 | 86 | 1017.6 |
| 20260905184523 | 22 | 98 | 4.8 | 11.3 | 0.00 | 0.00 | 0.00 | 88 | 1017.7 |
| 20260905183024 | 22 | 87 | 6.4 | 17.7 | 0.00 | 0.00 | 0.00 | 88 | 1017.8 |
| 20260905181531 | 21 | 88 | 4.8 | 12.9 | 0.00 | 0.00 | 0.00 | 92 | 1017.8 |
| 20260905180031 | 21 | 111 | 3.2 | 11.3 | 0.00 | 0.00 | 0.00 | 93 | 1017.9 |
| 20260905174533 | 21 | 51 | 6.4 | 12.9 | 0.00 | 0.03 | 0.00 | 94 | 1017.9 |
| 20260905173023 | 21 | 67 | 3.2 | 12.9 | 0.00 | 0.18 | 0.00 | 94 | 1018.0 |
| 20260905171533 | 21 | 74 | 6.4 | 14.5 | 0.00 | 0.18 | 0.00 | 95 | 1018.0 |
| 20260905170030 | 20 | 86 | 4.8 | 11.3 | 0.00 | 0.18 | 0.00 | 95 | 1018.0 |
| 20260905164537 | 21 | 63 | 1.6 | 11.3 | 0.00 | 0.18 | 0.00 | 95 | 1018.1 |
| 20260905163032 | 20 | 61 | 4.8 | 11.3 | 0.00 | 0.18 | 0.00 | 95 | 1018.1 |
| 20260905161526 | 20 | 110 | 6.4 | 12.9 | 0.00 | 0.18 | 0.00 | 95 | 1018.1 |
| 20260905160030 | 21 | 184 | 3.2 | 14.5 | 0.00 | 0.18 | 0.00 | 95 | 1018.0 |
| 20260905154532 | 21 | 91 | 4.8 | 14.5 | 0.00 | 0.18 | 0.00 | 95 | 1017.8 |
| 20260905153049 | 21 | 71 | 4.8 | 14.5 | 0.00 | 0.18 | 0.00 | 95 | 1017.8 |